| time (UTC) | temp F | wind direction | speed MPH | gust MPH | rain 1hr in | rain 24hr in | rain mn in | humidity % | barometer mb |
| 20260906222517 | 66 | 0.0 | 0.0 | 0.00 | 0.00 | 0.00 | 84 | 1016.8 | |
| 20260906221557 | 66 | 0.0 | 0.0 | 0.00 | 0.00 | 0.00 | 83 | 1016.8 | |
| 20260906220517 | 66 | 0.0 | 0.0 | 0.00 | 0.00 | 0.00 | 83 | 1016.9 | |
| 20260906215537 | 66 | 0.0 | 0.0 | 0.00 | 0.00 | 0.00 | 82 | 1016.9 | |
| 20260906214537 | 67 | 0.0 | 0.0 | 0.00 | 0.00 | 0.00 | 82 | 1017.1 | |
| 20260906213519 | 67 | 0.0 | 0.0 | 0.00 | 0.00 | 0.00 | 81 | 1017.1 | |
| 20260906212517 | 67 | 0.0 | 0.0 | 0.00 | 0.00 | 0.00 | 81 | 1017.0 | |
| 20260906211517 | 68 | 113 | 2.0 | 3.0 | 0.00 | 0.00 | 0.00 | 81 | 1017.0 |
| 20260906210517 | 68 | 113 | 1.0 | 3.0 | 0.00 | 0.00 | 0.00 | 80 | 1017.0 |
| 20260906205517 | 68 | 0.0 | 3.0 | 0.00 | 0.00 | 0.00 | 80 | 1017.0 | |
| 20260906204518 | 68 | 0.0 | 0.0 | 0.00 | 0.00 | 0.00 | 79 | 1017.1 | |
| 20260906203519 | 69 | 135 | 2.0 | 6.0 | 0.00 | 0.00 | 0.00 | 78 | 1017.1 |
| 20260906202517 | 69 | 158 | 2.0 | 4.0 | 0.00 | 0.00 | 0.00 | 77 | 1017.3 |
| 20260906201518 | 68 | 180 | 2.0 | 7.0 | 0.00 | 0.00 | 0.00 | 77 | 1017.3 |
| 20260906200517 | 68 | 135 | 4.0 | 9.0 | 0.00 | 0.00 | 0.00 | 78 | 1017.1 |
| 20260906195517 | 68 | 135 | 3.0 | 6.0 | 0.00 | 0.00 | 0.00 | 79 | 1017.0 |
| 20260906194518 | 68 | 135 | 4.0 | 8.0 | 0.00 | 0.00 | 0.00 | 80 | 1016.9 |
| 20260906193538 | 68 | 135 | 2.0 | 4.0 | 0.00 | 0.00 | 0.00 | 80 | 1017.2 |
| 20260906192517 | 68 | 113 | 4.0 | 7.0 | 0.00 | 0.00 | 0.00 | 80 | 1017.2 |
| 20260906191559 | 68 | 113 | 3.0 | 5.0 | 0.00 | 0.00 | 0.00 | 79 | 1017.3 |
| 20260906190517 | 69 | 113 | 3.0 | 5.0 | 0.00 | 0.00 | 0.00 | 79 | 1017.5 |
| 20260906185518 | 69 | 135 | 3.0 | 6.0 | 0.00 | 0.00 | 0.00 | 78 | 1017.5 |
| 20260906184517 | 70 | 135 | 3.0 | 7.0 | 0.00 | 0.00 | 0.00 | 77 | 1017.5 |
| 20260906183540 | 70 | 135 | 3.0 | 6.0 | 0.00 | 0.00 | 0.00 | 76 | 1017.4 |
| 20260906182517 | 70 | 135 | 3.0 | 6.0 | 0.00 | 0.00 | 0.00 | 75 | 1017.5 |
| 20260906181517 | 71 | 135 | 3.0 | 6.0 | 0.00 | 0.00 | 0.00 | 75 | 1017.5 |
| 20260906180517 | 71 | 135 | 4.0 | 10.0 | 0.00 | 0.00 | 0.00 | 74 | 1017.5 |
| 20260906175520 | 71 | 135 | 5.0 | 12.0 | 0.00 | 0.00 | 0.00 | 74 | 1017.3 |
| 20260906174600 | 72 | 135 | 4.0 | 10.0 | 0.00 | 0.00 | 0.00 | 73 | 1017.6 |
| 20260906173517 | 72 | 135 | 6.0 | 13.0 | 0.00 | 0.00 | 0.00 | 73 | 1017.7 |
| 20260906172518 | 71 | 135 | 6.0 | 13.0 | 0.00 | 0.00 | 0.00 | 73 | 1017.8 |
| 20260906171517 | 71 | 135 | 6.0 | 11.0 | 0.00 | 0.00 | 0.00 | 74 | 1018.1 |
| 20260906170517 | 71 | 135 | 4.0 | 10.0 | 0.00 | 0.00 | 0.00 | 74 | 1018.3 |
| 20260906165516 | 71 | 135 | 4.0 | 8.0 | 0.00 | 0.00 | 0.00 | 73 | 1018.5 |
| 20260906164517 | 71 | 135 | 5.0 | 10.0 | 0.00 | 0.00 | 0.00 | 73 | 1018.6 |
| 20260906163518 | 71 | 135 | 4.0 | 8.0 | 0.00 | 0.00 | 0.00 | 73 | 1018.7 |
| 20260906162518 | 71 | 135 | 3.0 | 7.0 | 0.00 | 0.00 | 0.00 | 73 | 1019.0 |
| 20260906161518 | 71 | 135 | 4.0 | 10.0 | 0.00 | 0.00 | 0.00 | 73 | 1019.0 |
| 20260906160516 | 71 | 135 | 4.0 | 9.0 | 0.00 | 0.00 | 0.00 | 72 | 1018.9 |
| 20260906155516 | 71 | 135 | 3.0 | 8.0 | 0.00 | 0.00 | 0.00 | 71 | 1019.1 |
| 20260906154517 | 71 | 158 | 3.0 | 6.0 | 0.00 | 0.00 | 0.00 | 71 | 1019.1 |
| 20260906153518 | 71 | 158 | 3.0 | 9.0 | 0.00 | 0.00 | 0.00 | 71 | 1019.2 |
| 20260906152516 | 71 | 180 | 4.0 | 9.0 | 0.00 | 0.00 | 0.00 | 70 | 1019.4 |
| 20260906151518 | 71 | 158 | 3.0 | 9.0 | 0.00 | 0.00 | 0.00 | 72 | 1019.5 |
| 20260906150516 | 71 | 180 | 6.0 | 14.0 | 0.00 | 0.00 | 0.00 | 71 | 1019.6 |
| 20260906145517 | 71 | 180 | 5.0 | 11.0 | 0.00 | 0.00 | 0.00 | 71 | 1019.7 |
| 20260906144516 | 71 | 158 | 4.0 | 11.0 | 0.00 | 0.00 | 0.00 | 71 | 1019.8 |
| 20260906143517 | 71 | 158 | 5.0 | 10.0 | 0.00 | 0.00 | 0.00 | 71 | 1019.8 |
| 20260906142518 | 72 | 158 | 4.0 | 7.0 | 0.00 | 0.00 | 0.00 | 71 | 1020.0 |
| 20260906141516 | 72 | 158 | 4.0 | 9.0 | 0.00 | 0.00 | 0.00 | 70 | 1020.0 |
| 20260906140518 | 72 | 158 | 4.0 | 10.0 | 0.00 | 0.00 | 0.00 | 70 | 1019.9 |
| 20260906135516 | 72 | 158 | 5.0 | 10.0 | 0.00 | 0.00 | 0.00 | 70 | 1020.1 |
| 20260906134518 | 72 | 135 | 5.0 | 9.0 | 0.00 | 0.00 | 0.00 | 70 | 1020.1 |
| 20260906133516 | 73 | 135 | 5.0 | 11.0 | 0.00 | 0.00 | 0.00 | 68 | 1020.3 |
| 20260906132518 | 74 | 135 | 5.0 | 10.0 | 0.00 | 0.00 | 0.00 | 67 | 1020.3 |
| 20260906131516 | 74 | 135 | 5.0 | 11.0 | 0.00 | 0.00 | 0.00 | 66 | 1020.2 |
| 20260906130516 | 75 | 135 | 6.0 | 12.0 | 0.00 | 0.00 | 0.00 | 65 | 1020.4 |
| 20260906125516 | 75 | 158 | 4.0 | 9.0 | 0.00 | 0.00 | 0.00 | 65 | 1020.5 |
| 20260906124516 | 75 | 135 | 5.0 | 11.0 | 0.00 | 0.00 | 0.00 | 65 | 1020.6 |
| 20260906123518 | 76 | 180 | 3.0 | 8.0 | 0.00 | 0.00 | 0.00 | 61 | 1020.6 |
| 20260906122518 | 76 | 180 | 4.0 | 10.0 | 0.00 | 0.00 | 0.00 | 60 | 1020.8 |
| 20260906121516 | 75 | 180 | 3.0 | 8.0 | 0.00 | 0.00 | 0.00 | 62 | 1020.8 |
| 20260906120538 | 75 | 180 | 5.0 | 9.0 | 0.00 | 0.00 | 0.00 | 61 | 1020.9 |
| 20260906115516 | 75 | 180 | 5.0 | 9.0 | 0.00 | 0.00 | 0.00 | 60 | 1020.9 |
| 20260906114516 | 76 | 180 | 3.0 | 7.0 | 0.00 | 0.00 | 0.00 | 61 | 1021.1 |
| 20260906113518 | 76 | 180 | 6.0 | 12.0 | 0.00 | 0.00 | 0.00 | 60 | 1021.2 |
| 20260906112517 | 75 | 180 | 4.0 | 10.0 | 0.00 | 0.00 | 0.00 | 62 | 1021.3 |
| 20260906111541 | 75 | 158 | 4.0 | 11.0 | 0.00 | 0.00 | 0.00 | 62 | 1021.4 |
| 20260906110516 | 74 | 180 | 4.0 | 10.0 | 0.00 | 0.00 | 0.00 | 63 | 1021.6 |
| 20260906105518 | 74 | 158 | 5.0 | 10.0 | 0.00 | 0.00 | 0.00 | 63 | 1021.6 |
| 20260906104517 | 74 | 180 | 5.0 | 12.0 | 0.00 | 0.00 | 0.00 | 64 | 1021.6 |
| 20260906103516 | 74 | 158 | 5.0 | 10.0 | 0.00 | 0.00 | 0.00 | 64 | 1021.6 |
| 20260906102516 | 74 | 158 | 5.0 | 16.0 | 0.00 | 0.00 | 0.00 | 64 | 1021.8 |
| 20260906101516 | 74 | 158 | 5.0 | 14.0 | 0.00 | 0.00 | 0.00 | 66 | 1021.8 |
| 20260906100516 | 73 | 158 | 4.0 | 9.0 | 0.00 | 0.00 | 0.00 | 68 | 1021.9 |
| 20260906095516 | 72 | 158 | 5.0 | 11.0 | 0.00 | 0.00 | 0.00 | 68 | 1021.8 |
| 20260906094516 | 73 | 158 | 5.0 | 11.0 | 0.00 | 0.00 | 0.00 | 66 | 1021.8 |
| 20260906093516 | 73 | 158 | 5.0 | 11.0 | 0.00 | 0.00 | 0.00 | 66 | 1021.9 |
| 20260906092516 | 72 | 158 | 6.0 | 12.0 | 0.00 | 0.00 | 0.00 | 69 | 1021.9 |
| 20260906091537 | 72 | 135 | 5.0 | 12.0 | 0.00 | 0.00 | 0.00 | 70 | 1021.9 |
| 20260906090516 | 72 | 135 | 7.0 | 14.0 | 0.00 | 0.00 | 0.00 | 69 | 1022.0 |
| 20260906085516 | 72 | 158 | 7.0 | 14.0 | 0.00 | 0.00 | 0.00 | 68 | 1022.2 |
| 20260906084517 | 71 | 135 | 6.0 | 13.0 | 0.00 | 0.00 | 0.00 | 69 | 1022.2 |
| 20260906083516 | 71 | 135 | 7.0 | 13.0 | 0.00 | 0.00 | 0.00 | 67 | 1022.3 |
| 20260906082539 | 71 | 158 | 6.0 | 13.0 | 0.00 | 0.00 | 0.00 | 69 | 1022.1 |
| 20260906081536 | 70 | 135 | 7.0 | 13.0 | 0.00 | 0.00 | 0.00 | 70 | 1022.1 |
| 20260906080558 | 70 | 158 | 6.0 | 12.0 | 0.00 | 0.00 | 0.00 | 72 | 1022.3 |
| 20260906075516 | 69 | 135 | 5.0 | 12.0 | 0.00 | 0.00 | 0.00 | 75 | 1022.3 |
| 20260906074517 | 68 | 158 | 5.0 | 13.0 | 0.00 | 0.00 | 0.00 | 77 | 1022.2 |
| 20260906073537 | 68 | 158 | 5.0 | 10.0 | 0.00 | 0.00 | 0.00 | 78 | 1022.3 |
| 20260906072517 | 67 | 135 | 3.0 | 6.0 | 0.00 | 0.00 | 0.00 | 82 | 1022.4 |
| 20260906071515 | 66 | 158 | 4.0 | 10.0 | 0.00 | 0.00 | 0.00 | 83 | 1022.5 |
| 20260906070516 | 64 | 158 | 3.0 | 10.0 | 0.00 | 0.00 | 0.00 | 85 | 1022.6 |
| 20260906065516 | 62 | 0.0 | 0.0 | 0.00 | 0.00 | 0.00 | 89 | 1022.7 | |
| 20260906064515 | 60 | 0.0 | 0.0 | 0.00 | 0.00 | 0.00 | 91 | 1022.7 | |
| 20260906063516 | 59 | 0.0 | 0.0 | 0.00 | 0.00 | 0.00 | 92 | 1022.8 | |
| 20260906062516 | 58 | 0.0 | 0.0 | 0.00 | 0.00 | 0.00 | 91 | 1022.9 | |
| 20260906061537 | 58 | 0.0 | 0.0 | 0.00 | 0.00 | 0.00 | 91 | 1023.0 | |
| 20260906060516 | 57 | 0.0 | 0.0 | 0.00 | 0.00 | 0.00 | 90 | 1023.1 | |
| 20260906055515 | 57 | 0.0 | 0.0 | 0.00 | 0.00 | 0.00 | 89 | 1023.1 | |
| 20260906054516 | 57 | 0.0 | 0.0 | 0.00 | 0.00 | 0.00 | 89 | 1023.2 | |
| 20260906053539 | 57 | 0.0 | 0.0 | 0.00 | 0.00 | 0.00 | 89 | 1023.2 | |
| 20260906052517 | 57 | 0.0 | 0.0 | 0.00 | 0.00 | 0.00 | 89 | 1023.0 | |
| 20260906051517 | 57 | 0.0 | 0.0 | 0.00 | 0.00 | 0.00 | 89 | 1023.1 | |
| 20260906050517 | 57 | 0.0 | 0.0 | 0.00 | 0.00 | 0.00 | 89 | 1023.2 | |
| 20260906045517 | 57 | 0.0 | 0.0 | 0.00 | 0.00 | 0.00 | 89 | 1023.4 | |
| 20260906044515 | 57 | 0.0 | 0.0 | 0.00 | 0.00 | 0.00 | 89 | 1023.2 | |
| 20260906042517 | 57 | 0.0 | 0.0 | 0.00 | 0.00 | 0.00 | 89 | 1023.2 | |
| 20260906041516 | 57 | 0.0 | 0.0 | 0.00 | 0.00 | 0.00 | 89 | 1023.4 | |
| 20260906040517 | 57 | 0.0 | 0.0 | 0.00 | 0.00 | 0.00 | 89 | 1023.4 | |
| 20260906035517 | 57 | 0.0 | 0.0 | 0.00 | 0.00 | 0.00 | 89 | 1023.6 | |
| 20260906034515 | 57 | 0.0 | 0.0 | 0.00 | 0.00 | 0.00 | 89 | 1023.6 | |
| 20260906033515 | 57 | 0.0 | 0.0 | 0.00 | 0.00 | 0.00 | 89 | 1023.8 | |
| 20260906032537 | 57 | 0.0 | 0.0 | 0.00 | 0.00 | 0.00 | 89 | 1023.9 | |
| 20260906031515 | 57 | 0.0 | 0.0 | 0.00 | 0.00 | 0.00 | 89 | 1024.0 | |
| 20260906030535 | 57 | 0.0 | 0.0 | 0.00 | 0.00 | 0.00 | 90 | 1024.1 | |
| 20260906025517 | 57 | 0.0 | 0.0 | 0.00 | 0.00 | 0.00 | 90 | 1024.2 | |
| 20260906024535 | 57 | 0.0 | 0.0 | 0.00 | 0.00 | 0.00 | 90 | 1024.1 | |
| 20260906023515 | 57 | 0.0 | 0.0 | 0.00 | 0.00 | 0.00 | 90 | 1024.1 | |
| 20260906022515 | 57 | 0.0 | 0.0 | 0.00 | 0.00 | 0.00 | 90 | 1024.0 | |
| 20260906021515 | 57 | 0.0 | 0.0 | 0.00 | 0.00 | 0.00 | 90 | 1024.3 | |
| 20260906020517 | 57 | 0.0 | 0.0 | 0.00 | 0.00 | 0.00 | 90 | 1024.5 | |
| 20260906015519 | 57 | 0.0 | 0.0 | 0.00 | 0.00 | 0.00 | 90 | 1024.6 | |
| 20260906014517 | 57 | 0.0 | 1.0 | 0.00 | 0.00 | 0.00 | 90 | 1024.5 | |
| 20260906013519 | 56 | 0.0 | 2.0 | 0.00 | 0.00 | 0.00 | 90 | 1024.6 | |
| 20260906012521 | 56 | 23 | 1.0 | 3.0 | 0.00 | 0.00 | 0.00 | 90 | 1024.5 |
| 20260906011520 | 56 | 0.0 | 0.0 | 0.00 | 0.00 | 0.00 | 90 | 1024.8 | |
| 20260906010518 | 56 | 0.0 | 0.0 | 0.00 | 0.00 | 0.00 | 90 | 1025.0 | |
| 20260906005519 | 56 | 0.0 | 0.0 | 0.00 | 0.00 | 0.00 | 89 | 1025.1 | |
| 20260906004523 | 56 | 0.0 | 0.0 | 0.00 | 0.00 | 0.00 | 89 | 1025.0 | |
| 20260906003519 | 56 | 0.0 | 0.0 | 0.00 | 0.00 | 0.00 | 88 | 1025.2 | |
| 20260906002517 | 56 | 0.0 | 0.0 | 0.00 | 0.00 | 0.00 | 89 | 1025.4 | |
| 20260906001520 | 56 | 0.0 | 0.0 | 0.00 | 0.00 | 0.00 | 88 | 1025.6 | |
| 20260906000517 | 56 | 0.0 | 0.0 | 0.00 | 0.00 | 0.00 | 88 | 1025.5 | |
| 20260905235518 | 57 | 0.0 | 0.0 | 0.00 | 0.00 | 0.00 | 88 | 1025.5 | |
| 20260905234522 | 57 | 0.0 | 0.0 | 0.00 | 0.00 | 0.00 | 88 | 1025.6 | |
| 20260905233518 | 57 | 0.0 | 0.0 | 0.00 | 0.00 | 0.00 | 87 | 1025.6 | |
| 20260905232540 | 57 | 0.0 | 0.0 | 0.00 | 0.00 | 0.00 | 87 | 1025.6 | |
| 20260905231517 | 57 | 0.0 | 0.0 | 0.00 | 0.00 | 0.00 | 86 | 1025.5 | |
| 20260905230517 | 57 | 0.0 | 0.0 | 0.00 | 0.00 | 0.00 | 86 | 1025.5 | |
| 20260905225518 | 57 | 0.0 | 0.0 | 0.00 | 0.00 | 0.00 | 86 | 1025.4 | |
| 20260905224538 | 57 | 0.0 | 0.0 | 0.00 | 0.00 | 0.00 | 85 | 1025.3 | |
| 20260905223517 | 58 | 0.0 | 0.0 | 0.00 | 0.00 | 0.00 | 85 | 1025.3 |